Probability
0 0 0 0 0 0 0 0 0 0 0 0 0 0 0 0 0 0 0 0 0 0 0 0 0 0 0 0 0 0 1 2 4 5 6 6 4 3
0 0 0 0 0 0 0 0 0 0 0 0 0 0 0 0 0 0 0 0 0 0 0 0 0 0 0 0 0 0 0 1 2 3 4 4 3 2
0 0 0 0 0 0 0 0 0 0 0 0 0 0 0 0 0 0 0 0 0 0 0 0 0 0 0 0 0 0 0 0 0 1 1 1 1 1
0 0 0 0 0 0 0 0 0 0 0 0 0 0 0 0 0 0 0 0 0 0 0 0 0 0 0 0 0 0 0 0 0 0 0 0 0 1
0 0 0 0 0 0 0 0 0 0 0 0 0 0 0 0 0 0 0 0 0 0 0 0 0 0 0 0 0 0 0 0 0 0 0 0 0 0
0 0 0 0 0 0 0 0 0 0 0 0 0 0 0 0 0 0 0 0 0 0 0 0 0 0 0 0 0 0 0 0 0 0 0 0 0 0
0 0 0 0 0 0 0 0 0 0 0 0 0 0 0 0 0 0 0 0 0 0 0 0 0 1 1 0 0 0 0 0 0 0 0 0 0 0
0 0 0 0 0 0 0 0 0 0 0 0 0 0 0 0 0 0 0 0 0 0 0 0 1 2 2 1 0 0 0 0 0 0 0 0 0 0
0 0 0 0 0 0 0 0 0 0 0 0 0 0 0 0 0 0 0 0 0 0 0 0 1 2 2 1 0 0 0 0 0 0 0 0 0 0
0 0 0 0 0 0 0 0 0 0 0 0 0 0 0 0 0 0 0 0 0 0 0 0 0 1 1 0 0 0 0 0 0 0 0 0 0 0
0 0 0 0 0 0 0 0 0 0 0 0 0 0 0 0 0 0 0 0 0 0 0 0 0 0 0 0 0 0 0 0 0 0 0 0 0 0
0 0 0 0 0 0 0 0 0 0 0 0 0 0 0 0 0 0 0 0 0 0 0 0 0 0 0 0 0 0 0 0 0 0 0 0 0 0
0 0 0 0 0 0 0 0 0 0 0 0 0 0 0 0 0 0 0 0 0 0 0 0 0 0 0 0 0 0 0 0 0 0 0 0 0 0
0 0 0 0 0 0 0 0 0 0 0 0 0 0 0 0 0 0 0 0 0 0 0 0 0 0 0 0 0 0 0 0 0 0 0 0 0 0
0 0 0 0 0 0 0 0 0 0 0 0 0 0 0 0 0 0 0 0 0 0 0 0 0 0 0 0 0 0 0 0 0 0 0 0 0 0
0 0 0 0 0 0 0 0 0 0 0 0 0 0 0 0 0 0 0 0 0 0 0 0 0 0 0 0 0 0 0 0 0 0 0 0 0 0
0 0 0 0 0 0 0 0 0 0 0 0 0 0 0 0 0 0 0 0 0 0 0 0 0 0 0 0 0 0 0 0 0 0 0 0 0 0
0 0 0 0 0 0 0 0 0 0 0 0 0 0 0 0 0 0 0 0 0 0 0 0 0 0 0 0 0 0 0 0 0 0 0 0 0 0
0 0 0 0 0 0 0 0 0 0 0 0 0 0 0 0 0 0 0 0 0 0 0 0 0 0 0 0 0 0 0 0 0 0 0 0 0 0
0 0 0 0 0 0 0 0 0 0 0 0 0 0 0 0 0 0 0 0 0 0 0 0 0 0 0 0 0 0 0 0 0 0 0 0 0 0
0 0 0 0 0 0 0 0 0 0 0 0 0 0 0 0 0 0 0 0 0 0 0 0 0 0 0 0 0 0 0 0 0 0 0 0 0 0
0 0 0 0 0 0 0 0 0 0 0 0 0 0 0 0 0 0 0 0 0 0 0 0 0 0 0 0 0 0 0 0 0 0 0 0 0 0
0 0 0 0 0 0 0 0 0 0 0 0 0 0 0 0 0 0 0 0 0 0 0 0 0 0 0 0 0 0 0 0 0 0 0 0 0 0
Wind_Speed
3 3 3 3 3 3 3 3 3 3 4 3 3 2 2 3 4 4 4 6 7 7 7 7 7 8 9 10 12 13 15 17 18 20 21 22 22 23
3 3 3 3 3 3 3 4 4 4 4 3 3 3 4 5 5 5 5 8 8 8 8 8 8 8 9 9 10 12 13 15 17 19 20 20 20 21
3 4 5 4 3 3 3 3 4 4 6 5 3 3 4 6 6 5 5 5 5 8 9 9 9 9 9 9 10 10 12 14 15 17 19 20 20 21
5 5 6 4 4 4 3 4 4 5 6 7 4 3 5 5 6 6 5 5 5 7 9 9 9 10 9 9 10 11 11 12 14 15 16 18 20 21
6 6 6 5 6 5 5 5 4 5 5 5 5 3 4 4 4 5 5 4 5 6 8 9 9 10 10 10 10 11 11 12 13 14 15 17 18 19
6 7 7 7 7 7 5 6 5 5 5 5 6 5 5 4 4 4 5 4 4 4 5 6 7 8 9 10 11 11 12 12 13 14 15 15 16 17
7 7 8 9 11 8 6 6 6 5 5 5 6 5 5 4 4 3 5 5 5 4 4 4 4 4 5 8 10 11 12 12 13 14 14 15 16 16
8 8 8 9 11 12 12 11 9 8 7 6 6 7 8 6 5 5 4 4 4 2 3 4 3 5 5 5 8 10 11 12 12 13 14 14 15 16
9 8 7 7 8 7 9 10 10 12 13 9 9 10 9 7 6 6 6 6 6 3 3 5 4 5 5 6 9 10 11 12 12 12 13 14 14 15
9 9 9 9 8 8 8 8 9 9 9 9 10 11 10 9 8 7 7 7 6 5 5 5 4 5 5 5 8 10 11 11 12 12 12 13 14 14
10 9 10 10 12 11 8 9 9 9 9 12 12 12 13 12 9 6 6 5 6 5 5 5 5 5 5 5 6 9 10 10 10 11 12 12 13 12
8 8 12 13 13 11 9 9 10 10 8 7 7 9 10 10 11 10 8 7 6 5 5 6 4 4 4 3 3 4 5 7 9 9 10 10 11 8
7 7 7 12 14 13 11 10 12 10 7 7 7 7 7 7 7 8 9 9 9 8 5 5 4 4 4 4 3 3 4 4 4 5 8 9 10 10
9 8 8 11 12 12 10 11 14 10 7 6 7 8 8 8 7 8 9 10 11 11 8 8 6 6 5 6 5 3 3 4 4 4 4 6 8 11
9 11 11 11 10 10 12 13 10 7 7 7 9 9 8 8 7 6 7 8 10 11 10 11 10 8 7 8 7 5 4 4 4 5 4 5 5 5
9 9 10 10 9 10 9 8 7 7 8 9 9 8 7 6 7 6 6 5 6 7 9 12 12 12 9 10 8 7 6 4 3 4 4 4 5 5
4 4 4 4 5 6 6 7 6 6 8 8 8 8 7 7 7 6 6 6 6 6 6 5 8 9 11 9 8 8 7 7 6 5 5 5 5 6
5 5 6 7 7 7 7 7 6 7 7 7 7 8 7 7 7 6 6 7 7 8 7 6 5 5 5 7 10 9 8 7 6 6 5 5 5 5
6 7 8 8 8 7 7 7 7 7 6 7 8 8 8 7 7 6 6 7 8 8 7 6 6 7 8 8 8 12 9 7 6 6 6 5 5 5
7 8 8 8 8 7 7 7 7 7 6 7 8 8 7 7 7 7 7 8 7 7 7 6 7 9 10 9 6 5 11 8 6 6 5 4 3 2
8 8 8 8 8 8 8 8 8 7 8 7 7 8 7 7 8 8 7 9 8 7 8 8 8 9 6 4 5 5 5 7 6 5 5 4 4 4
8 8 8 8 8 8 8 7 7 8 8 7 7 7 7 7 8 9 8 7 7 7 8 7 5 5 6 7 7 6 5 3 3 3 2 2 4 5
8 8 8 8 8 8 7 8 9 8 7 7 7 7 7 7 7 7 8 8 7 7 7 6 5 5 6 7 7 5 6 5 4 3 1 3 1 1
Wind_Direction
237 235 236 242 231 228 223 214 227 268 281 272 277 297 304 295 290 293 291 287 279 266 251 242 240 240 238 237 233 232 231 229 227 224 222 220 220 219
237 237 242 244 244 234 227 222 219 234 260 263 258 278 295 297 295 292 284 284 278 268 255 246 243 242 240 237 236 236 234 231 227 222 220 218 217 217
248 241 251 249 248 244 232 225 223 219 248 266 258 270 275 281 293 293 285 278 274 267 259 249 243 243 243 241 240 240 238 234 229 224 220 217 215 215
255 248 255 252 248 247 240 238 234 224 235 264 270 267 261 271 279 287 285 279 272 272 264 253 246 244 244 245 245 244 242 238 233 228 223 221 219 217
253 251 255 250 254 249 242 244 244 241 230 250 269 264 266 269 280 281 282 280 278 273 264 254 248 247 245 245 246 245 244 241 237 231 227 223 220 218
253 251 252 247 250 251 248 245 243 245 241 247 262 267 266 267 261 271 280 273 278 281 267 258 252 251 249 247 246 245 243 241 238 233 229 225 221 219
260 255 254 253 250 245 245 243 238 242 246 250 259 263 262 259 255 254 269 280 276 259 267 262 256 255 252 248 248 246 243 240 237 233 230 226 223 220
262 263 261 261 261 258 253 248 235 236 244 247 253 257 261 257 254 251 258 271 277 247 246 267 254 259 256 250 245 244 245 242 237 233 229 226 224 222
253 259 263 260 254 258 263 263 255 244 236 240 251 255 258 250 245 252 247 247 253 256 250 270 255 259 258 254 248 248 247 244 239 233 228 224 223 222
249 248 252 260 256 250 258 263 262 257 247 242 244 251 253 252 241 247 255 259 261 253 228 255 257 256 262 254 247 246 246 244 242 235 229 226 224 223
253 247 243 251 254 246 246 256 265 267 257 245 242 249 251 249 240 238 238 240 257 253 213 233 251 256 259 259 249 241 244 244 243 240 233 228 225 222
257 250 241 241 249 244 237 243 257 265 268 271 262 261 259 257 242 231 232 236 247 253 217 214 235 236 261 249 252 248 244 243 240 239 235 228 217 215
254 255 248 238 241 244 237 237 244 254 265 266 269 268 264 256 248 235 228 228 234 240 223 205 226 222 240 267 266 249 239 240 234 235 230 225 216 209
248 252 251 247 244 246 243 241 245 249 254 257 260 262 260 256 250 243 235 232 235 242 237 220 231 232 237 249 257 252 241 238 235 239 233 217 218 219
244 246 250 253 254 254 248 246 245 241 239 246 253 257 255 257 257 252 246 239 241 243 241 230 232 236 236 243 249 249 254 246 229 233 230 219 213 203
244 252 255 255 251 253 257 251 240 234 234 244 253 259 259 254 249 242 245 239 240 247 237 230 229 229 234 238 242 246 240 239 226 221 228 228 217 209
241 247 248 248 250 250 250 250 245 237 236 241 247 254 254 252 251 239 235 233 233 243 243 226 225 228 232 234 236 239 240 239 236 224 220 231 226 213
215 239 247 247 249 253 255 257 249 241 238 238 240 243 246 247 250 241 230 231 237 242 242 237 218 217 226 233 225 235 235 235 230 218 214 225 230 214
214 237 244 247 249 249 249 250 253 251 243 238 240 240 241 243 244 244 236 234 238 240 237 229 218 219 229 237 222 210 223 225 219 215 215 221 228 215
227 238 244 246 248 248 248 248 252 254 247 242 241 241 238 238 240 241 237 236 238 239 236 227 220 219 225 234 233 214 209 214 212 214 214 216 220 191
237 240 244 246 246 246 247 248 248 250 249 244 242 241 238 235 238 240 240 236 235 238 238 236 231 221 225 226 229 221 210 209 211 206 197 194 194 190
253 248 247 245 245 246 245 245 247 248 249 246 244 241 238 235 239 242 240 236 230 232 240 243 232 210 209 217 225 221 210 186 172 152 149 191 193 193
258 254 251 250 247 245 244 245 247 248 245 244 243 240 236 235 235 237 238 237 234 232 233 232 221 213 216 220 223 216 203 190 174 164 129 6 289 219